OKEAN-3 (21397 NORAD) Tracking and Keplerian Element Data

This shows tracking and keplerian element data for the satellite.

Feedback or suggestion? Click here.




ElementValue
Catalog21397
NameOKEAN-3
Epoch Orbit76811
Epoch Day13.08794764
Epoch Year2024
RAAN14.4662
Inclination82.5197
Eccentricity0.00184
Argument of Perigee113.5897
Mean Anonmoly246.726
Mean Motion14.96883578
Decay Rate4.432E-05
L11 21397U 91039A 24013.08794764 .00004432 00000+0 38293-3 0 9999
L22 21397 82.5197 14.4662 0018400 113.5897 246.7260 14.96883578768115



Live tracking and technical data element details for OKEAN-3 (NORAD 21397). OKEAN-3 can be tracked NOW for your location showing map with azimuth and elevation plus other details from your city location.







IsCatalogInMostPopularTable: catalog: 21397, numindb: 319
Update: records affected: 1



GetName: 21397 OKEAN-3

Hit Count: updated at: Mon, 15 Apr 2024 00:05:29 GMT